STARLINK-2037 (47653 NORAD) Tracking and Keplerian Element Data

This shows tracking and keplerian element data for the satellite.

Feedback or suggestion? Click here.




ElementValue
Catalog47653
NameSTARLINK-2037
Epoch Orbit177
Epoch Day105.91667824
Epoch Year2021
RAAN170.3716
Inclination53.0475
Eccentricity0.0001342
Argument of Perigee59.9768
Mean Anonmoly78.2183
Mean Motion15.54344964
Decay Rate-0.00486152
L11 47653U 21012AK 21105.91667824 -.00486152 00000-0 -77452-2 0 9998
L22 47653 53.0475 170.3716 0001342 59.9768 78.2183 15.54344964 1779

Live tracking and technical data element details for STARLINK-2037 (NORAD 47653). STARLINK-2037 can be tracked NOW for your location showing map with azimuth and elevation plus other details from your city location.

Track the satellite on the map from your city or location and see movement details for azimuth, elevation, latitude, longitude, range, height, and movement on the map or in text.







IsCatalogInMostPopularTable: catalog: 47653, numindb: 17
Update: records affected: 1



GetName: 47653 STARLINK-2037

Hit Count: updated at: Fri, 16 Apr 2021 11:45:46 GMT